Regional Weather Roundup
Issued by NWS

Home | Current Version | Previous Version | Graphics & Text | Print | Product List | Glossary On
Versions: 1 2 3 4 5 6 7 8 9 10 11 12 13 14 15 16 17 18 19 20 21 22 23 24 25 26 27 28 29 30 31 32 33 34 35 36 37 38 39 40 41 42 43 44 45 46 47 48 49 50
000
ASUS43 KMPX 251601
RWRMN
WEATHER ROUNDUP FOR MINNESOTA
NATIONAL WEATHER SERVICE TWIN CITIES/CHANHASSEN MN
1100 AM CDT SAT OCT 25 2014


NOTE: "FAIR" INDICATES FEW OR NO CLOUDS BELOW 12,000 FEET WITH NO
SIGNIFICANT WEATHER AND/OR OBSTRUCTIONS TO VISIBILITY. N/A MEANS
CURRENT SKY AND/OR WEATHER CONDITIONS ARE NOT AVAILABLE.

MNZ060>063-068>070-251700-
   Twin Cities Metro

CITY           SKY/WX    TMP DP  RH WIND       PRES   REMARKS
TWIN CITIES    MOSUNNY   56  32  40 NW13      30.05S
ST PAUL        MOSUNNY   56  33  42 NW15      30.05S
CRYSTAL        MOSUNNY   56  31  38 NW16      30.05R
BLAINE         MOSUNNY   57  34  41 NW14G21   30.04R
LAKEVILLE      PTSUNNY   57  34  41 NW10G21   30.06R
EDEN PRAIRIE   PTSUNNY   55  33  43 NW12      30.06R
SOUTH ST PAUL  MOSUNNY   58  30  35 NW13      30.04R
LAKE ELMO      FAIR      55  34  44 NW14      30.04S
$$
MNZ001>005-007-008-013>017-022>024-027-028-251700-
   Northwest Minnesota

CITY           SKY/WX    TMP DP  RH WIND       PRES   REMARKS
BEMIDJI        SUNNY     49  32  51 W17       30.01R
HALLOCK        SUNNY     50  30  46 NW20      30.03R
ROSEAU         SUNNY     50  34  53 W14       29.98S
WARROAD        SUNNY     48  34  57 W20       29.96S
THIEF RVR FALL SUNNY     48  30  49 W16       30.05R
CROOKSTON      SUNNY     52  32  46 NW22      30.08R
FOSSTON        SUNNY     48  30  49 W15G21    30.06R
DETROIT LAKES  SUNNY     50  32  50 NW15G24   30.08R
MOORHEAD       SUNNY     54  30  40 NW17      30.12R
PARK RAPIDS    SUNNY     52  29  41 NW23G35   30.03R
MAHNOMEN       FAIR      48  32  54 NW17G26   30.07R
$$
MNZ006-009>011-018-025>026-251700-
   North Central Minnesota

CITY           SKY/WX    TMP DP  RH WIND       PRES   REMARKS
BAUDETTE       SUNNY     48  30  49 W14G26    29.94R
FLAG ISLAND    SUNNY     46  30  53 W23G29    29.90F
INTL FALLS     SUNNY     49  32  52 W18G25    29.89R
WASKISH        SUNNY     48  36  61 W15G21    29.97S
BIG FORK       SUNNY     52  32  46 W14G22    29.95R
LONGVILLE      SUNNY     52  30  43 W15G25    29.99R
GRAND RAPIDS   SUNNY     48  30  49 NW17G26   29.97R
CRANE LAKE     SUNNY     48  30  49 W9G20     29.89R
ORR            SUNNY     48  28  46 NW13G23   29.88S
COOK           SUNNY     48  32  53 W20G31    29.90S
WALKER         FAIR      49  31  49 W16       30.00R
$$
MNZ012-019>021-037-251700-
   Northeast Minnesota

CITY           SKY/WX    TMP DP  RH WIND       PRES   REMARKS
DULUTH         SUNNY     52  31  44 NW22G31   29.91S
ELY            SUNNY     48  28  46 W15G31    29.85S
HIBBING        SUNNY     52  30  43 NW20G31   29.92R
EVELETH        SUNNY     52  32  46 NW21G29   29.91S
DULUTH HARBOR  SUNNY     54  36  50 W14G28    29.93S
TWO HARBORS    SUNNY     55  18  22 W14G24    29.85F
SILVER BAY     SUNNY     54  30  40 W13G26    29.82S
GRAND MARAIS     N/A     55  33  43 NW17G45   29.72S
G MARAIS ARPRT SUNNY     48  30  49 W18G35    29.75S
$$
MNZ029>031-032-039>041-046>048-054>057-064-251700-
   West Central Minnesota

CITY           SKY/WX    TMP DP  RH WIND       PRES   REMARKS
FERGUS FALLS   MOSUNNY   50  30  46 NW15      30.13R
WHEATON        PTSUNNY   54  34  47 NW14      30.14S
MORRIS         PTSUNNY   55  36  47 NW14G20   30.11R
ALEXANDRIA     MOSUNNY   53  33  46 NW15      30.10R
ELBOW LAKE     PTSUNNY   50  35  56 NW9       30.12R
WADENA         SUNNY     50  36  57 W9        30.06R
GLENWOOD       PTSUNNY   52  36  54 W10       30.10S
APPLETON       MOSUNNY   59  34  38 NW12      30.12R
BENSON         PTSUNNY   55  36  47 N8        30.12R
ORTONVILLE     MOSUNNY   57  34  41 NW8       30.13R
MADISON        SUNNY     61  36  39 NW9       30.13S
WILLMAR        FAIR      55  34  44 NW12      30.12S
$$
MNZ033>034-036-042>043-049>051-058-059-251700-
   Central Minnesota

CITY           SKY/WX    TMP DP  RH WIND       PRES   REMARKS
ST CLOUD       MOSUNNY   58  34  40 W10       30.05S
SAUK CENTRE    FAIR      53  34  49 W12G17    30.08S
PAYNESVILLE    MOSUNNY   49  33  54 W10       30.09S
AITKIN         SUNNY     55  30  38 W9        29.98S
PINE RIVER     SUNNY     52  34  50 W9G20     30.04S
BRAINERD       SUNNY     51  32  48 W12G20    30.03R
STAPLES        SUNNY     52  34  50 W13       30.05S
LONG PRAIRIE   FAIR      52  32  46 W14G21    30.07S
LITTLE FALLS   SUNNY     52  32  46 NW16      30.05S
LITCHFIELD     PTSUNNY   55  32  41 NW10      30.09S
BUFFALO        PTSUNNY   55  32  41 W9G17     30.07S
MAPLE LAKE     PTSUNNY   55  36  49 W9        30.07S
$$
MNZ037-044-045-052-053-251700-
   East Central Minnesota

CITY           SKY/WX    TMP DP  RH WIND       PRES   REMARKS
PRINCETON      MOSUNNY   55  34  44 W17       30.04S
MORA           SUNNY     54  32  43 NW10G22   30.03S
CAMBRIDGE      SUNNY     57  37  47 NW10G16   30.01R
RUSH CITY      MOSUNNY   54  33  46 NW10G17   30.02S
MOOSE LAKE     SUNNY     54  30  40 W14G20    29.96S
HINCKLEY       FAIR      54  32  43 NW12G18   29.99F
CLOQUET        SUNNY     54  28  37 W21G26    29.94S
MCGREGOR       SUNNY     54  32  43 W17G28    29.99R
$$
MNZ071>073-080-081-089-090-097-098-251700-
   Southwest Minnesota

CITY           SKY/WX    TMP DP  RH WIND       PRES   REMARKS
MONTEVIDEO     SUNNY     59  37  44 NW7       30.13S
GRANITE FALLS  SUNNY     56  35  44 NW7       30.14S
CANBY          SUNNY     57  35  43 N6        30.15S
MARSHALL       SUNNY     57  34  41 N13       30.13S
REDWOOD FALLS  SUNNY     58  33  39 NW9       30.12R
OLIVIA         MOSUNNY   57  36  44 NW10      30.11S
PIPESTONE      SUNNY     57  36  44 N5        30.14S
WINDOM         SUNNY     59  34  38 NW13      30.13R
WORTHINGTON    SUNNY     57  34  41 N10       30.15R
JACKSON        SUNNY     61  32  33 N9        30.13R
TRACY          SUNNY     59  36  42 N10       30.14R
SLAYTON        SUNNY     57  32  38 N10       30.15R
$$
MNZ065>067-074>077-082>085-091>093-251700-
   South Central Minnesota

CITY           SKY/WX    TMP DP  RH WIND       PRES   REMARKS
MANKATO        MOSUNNY   57  34  41 NW14G20   30.10R
NEW ULM        MOSUNNY   57  36  44 NW15      30.11R
ST JAMES       SUNNY     61  32  33 NW12      30.13R
FAIRMONT       SUNNY     61   3  10 N13       30.12R
GLENCOE        PTSUNNY   58  35  41 NW13G20   30.08S
FARIBAULT      MOSUNNY   57  34  41 NW10G16   30.08R
OWATONNA       SUNNY     57  36  44 NW15      30.08R
WASECA         SUNNY     57  32  38 NW12G18   30.10S
ALBERT LEA     SUNNY     59  36  41 NW10G16   30.09R
$$
MNZ078>079-086>088-094>096-251700-
   Southeast Minnesota

CITY           SKY/WX    TMP DP  RH WIND       PRES   REMARKS
ROCHESTER      MOSUNNY   57  37  47 NW15G24   30.07R
RED WING       MOSUNNY   59  30  33 NW13G20   30.02S
STANTON        PTSUNNY   57  35  43 NW14      30.05R
DODGE CENTER   MOSUNNY   57  39  51 NW15G21   30.06R
WINONA         SUNNY     59  36  41 N6        30.02S
AUSTIN         SUNNY     57  37  47 NW14G21   30.07S
PRESTON        SUNNY     56  38  49 NW14G20   30.06R
$$
ABBREVIATIONS USED IN REMARKS
   TC - TEMPERATURES IN CELSIUS
  WCI - WIND CHILL INDEX
   HX - HEAT INDEX
  VSB - VISIBILITY
$$



USA.gov is the U.S. government's official web portal to all federal, state and local government web resources and services.